{"data":{"norad_id":68179,"epoch":"2026-05-24T18:33:39.623328Z","epoch_age_seconds":105102,"freshness":"FRESH","line1":"1 68179U 26050N   26144.77337527  .00032383  00000+0  83748-3 0  9993","line2":"2 68179  53.1570 273.2320 0000863 109.8036 250.3062 15.38828579 12330","mean_motion":15.38828579,"eccentricity":8.63e-5,"inclination_deg":53.157,"raan_deg":273.232,"arg_perigee_deg":109.8036,"mean_anomaly_deg":250.3062,"bstar":0.00083748,"rev_number":1233,"period_min":93.577674579957,"perigee_km":448.98291620389,"apogee_km":450.16137880275,"semimajor_km":6827.7091475033,"source":"CELESTRAK","updated_at":"2026-05-25T13:38:21.854791Z"}}